Погода в Вересаево

Россия / Республика Крым     45°18′15″N   33°30′00″E
темп.,
°C
ветер,
м/с
пор.,
м/с
влажн.,
%
обл.,
%
осадки,
мм/ч
давл.,
гПа
погр.,
м
31 июля, сб
сб3100:00+24зюз22710 0.0 101036
03:00+23ссв11800 0.0 101022
06:00+22всв22780 0.0 101042
09:00+27в22560 0.0 1011513
12:00+31юз324319 0.0 10102212
15:00+31зсз654232 0.0 10101459
18:00+31сз234237 0.0 10091741
21:00+28с244818 0.0 1010123
1 августа, вс
вс100:00+24св22640 0.0 101126
03:00+23всв22690 0.0 101127
06:00+23в22700 0.0 101135
09:00+28ююв22505 0.0 1012382
12:00+31юз42394 0.0 10121663
15:00+32зюз763822 0.0 10111206
18:00+32з443910 0.0 10111770
21:00+26сз23570 0.0 101241
2 августа, пн
пн200:00+24ссв12610 0.0 101211
03:00+23св11650 0.0 101213
06:00+23в11660 0.0 101221
09:00+29всв00450 0.0 1012363
12:00+32юз32360 0.0 10121589
15:00+32юз65380 0.0 10101087
18:00+30зюз56440 0.0 1010452
21:00+25ююз33630 0.0 101136
3 августа, вт
вт300:00+24ююв22670 0.0 101118
03:00+23ю22710 0.0 101113
06:00+23юз23740 0.0 101221
09:00+28ююз44530 0.0 1012515
12:00+30юз444212 0.0 1011641
15:00+31з5741100 0.0 1011807
18:00+29зюз3449100 0.0 1011583
21:00+26з227198 0.0 101357
4 августа, ср
ср400:00+23ссв45820 0.1 1014128
03:00+22ссв4686100 0.1 1013118
06:00+21св4887100 0.0 1014199
09:00+26св4559100 0.0 1016550
12:00+30ссз4440100 0.0 10151836
15:00+31св55325 0.0 10151724
18:00+31св43315 0.0 10152016
21:00+26в47415 0.0 1016106